• în România
  • Lista ţărilor
  • Pe 7 zile
  • Temperatura apei
  • Hartă satelitară
  • Meteo pe hartă
  • Widget-uri
  • user-avatar
    Intrare

    Meteo pe oră la Kumskoy

    Astăzi, 25 Septembrie, Marţi

    Timp Temperatura Precipitaţii Vânt Presiune Umiditate
    00:00 +18°C° 0 mm 3 m/s 734 mmHg 76%
    01:00 +18°C° 0 mm 3 m/s 734 mmHg 75%
    02:00 +18°C° 0 mm 2 m/s 733 mmHg 75%
    03:00 +17°C° 0 mm 2 m/s 733 mmHg 75%
    04:00 +17°C° 0 mm 2 m/s 733 mmHg 75%
    05:00 +17°C° 0 mm 2 m/s 733 mmHg 74%
    06:00 +18°C° 0 mm 1 m/s 733 mmHg 74%
    07:00 +20°C° 0 mm 1 m/s 733 mmHg 68%
    08:00 +22°C° 0 mm 1 m/s 732 mmHg 62%
    09:00 +24°C° 0 mm 1 m/s 732 mmHg 56%
    10:00 +26°C° 0 mm 2 m/s 732 mmHg 52%
    11:00 +27°C° 0 mm 2 m/s 732 mmHg 47%
    12:00 +29°C° 0 mm 2 m/s 732 mmHg 43%
    13:00 +29°C° 0 mm 2 m/s 732 mmHg 42%
    14:00 +30°C° 0 mm 2 m/s 732 mmHg 41%
    15:00 +30°C° 0 mm 2 m/s 732 mmHg 39%
    16:00 +29°C° 0 mm 2 m/s 732 mmHg 45%
    17:00 +27°C° 0 mm 2 m/s 733 mmHg 50%
    18:00 +26°C° 0 mm 2 m/s 733 mmHg 56%
    19:00 +24°C° 0.2 mm 3 m/s 734 mmHg 63%
    20:00 +21°C° 0.2 mm 5 m/s 734 mmHg 70%
    21:00 +19°C° 0.2 mm 6 m/s 735 mmHg 77%
    22:00 +17°C° 0.1 mm 5 m/s 735 mmHg 77%
    23:00 +16°C° 0.1 mm 5 m/s 736 mmHg 77%

    Mâine, 26 Septembrie, Miercuri

    Timp Temperatura Precipitaţii Vânt Presiune Umiditate
    00:00 +16°C° 0.1 mm 5 m/s 736 mmHg 77%
    01:00 +15°C° 0.2 mm 5 m/s 737 mmHg 77%
    02:00 +14°C° 0.2 mm 5 m/s 737 mmHg 78%
    03:00 +14°C° 0.2 mm 5 m/s 737 mmHg 78%
    04:00 +13°C° 0.1 mm 4 m/s 738 mmHg 77%
    05:00 +13°C° 0.1 mm 4 m/s 738 mmHg 75%
    06:00 +12°C° 0.1 mm 4 m/s 738 mmHg 74%
    07:00 +12°C° 0.1 mm 4 m/s 739 mmHg 74%
    08:00 +12°C° 0.1 mm 4 m/s 739 mmHg 74%
    09:00 +12°C° 0.1 mm 3 m/s 740 mmHg 73%
    10:00 +12°C° 0.1 mm 3 m/s 740 mmHg 73%
    11:00 +12°C° 0.1 mm 3 m/s 740 mmHg 72%
    12:00 +13°C° 0.1 mm 2 m/s 740 mmHg 71%
    13:00 +14°C° 0 mm 2 m/s 740 mmHg 68%
    14:00 +14°C° 0 mm 2 m/s 740 mmHg 64%
    15:00 +15°C° 0 mm 2 m/s 740 mmHg 61%
    16:00 +15°C° 0 mm 1 m/s 740 mmHg 62%
    17:00 +14°C° 0 mm 1 m/s 740 mmHg 63%
    18:00 +14°C° 0 mm 1 m/s 741 mmHg 64%
    19:00 +14°C° 0 mm 1 m/s 741 mmHg 65%
    20:00 +13°C° 0 mm 1 m/s 741 mmHg 67%
    21:00 +13°C° 0 mm 2 m/s 741 mmHg 68%
    22:00 +13°C° 0 mm 2 m/s 741 mmHg 69%
    23:00 +13°C° 0 mm 1 m/s 741 mmHg 71%

    Poimâine, 27 Septembrie, Joi

    Timp Temperatura Precipitaţii Vânt Presiune Umiditate
    00:00 +12°C° 0 mm 1 m/s 741 mmHg 72%
    01:00 +12°C° 0 mm 1 m/s 741 mmHg 73%
    02:00 +12°C° 0 mm 2 m/s 741 mmHg 73%
    03:00 +12°C° 0 mm 2 m/s 741 mmHg 73%
    04:00 +11°C° 0 mm 1 m/s 741 mmHg 75%
    05:00 +11°C° 0 mm 1 m/s 741 mmHg 77%
    06:00 +11°C° 0 mm 1 m/s 741 mmHg 78%
    07:00 +11°C° 0.3 mm 1 m/s 742 mmHg 77%
    08:00 +12°C° 0.3 mm 1 m/s 742 mmHg 75%
    09:00 +12°C° 0.3 mm 2 m/s 742 mmHg 74%
    10:00 +14°C° 0 mm 2 m/s 742 mmHg 69%
    11:00 +15°C° 0 mm 2 m/s 741 mmHg 63%
    12:00 +17°C° 0 mm 3 m/s 741 mmHg 58%
    13:00 +17°C° 0 mm 3 m/s 741 mmHg 56%
    14:00 +18°C° 0 mm 2 m/s 741 mmHg 54%
    15:00 +19°C° 0 mm 2 m/s 741 mmHg 52%
    16:00 +18°C° 0 mm 2 m/s 741 mmHg 56%
    17:00 +17°C° 0 mm 2 m/s 740 mmHg 60%
    18:00 +16°C° 0 mm 2 m/s 740 mmHg 64%
    19:00 +15°C° 0 mm 2 m/s 741 mmHg 67%
    20:00 +14°C° 0 mm 1 m/s 741 mmHg 70%
    21:00 +14°C° 0 mm 1 m/s 741 mmHg 72%
    22:00 +14°C° 0 mm 1 m/s 741 mmHg 73%
    23:00 +13°C° 0 mm 1 m/s 741 mmHg 74%

    28 Septembrie, Vineri

    Timp Temperatura Precipitaţii Vânt Presiune Umiditate
    00:00 +13°C° 0 mm 1 m/s 741 mmHg 76%
    01:00 +13°C° 0 mm 1 m/s 741 mmHg 76%
    02:00 +13°C° 0 mm 1 m/s 740 mmHg 77%
    03:00 +13°C° 0 mm 1 m/s 740 mmHg 77%
    04:00 +12°C° 0 mm 1 m/s 740 mmHg 78%
    05:00 +12°C° 0 mm 1 m/s 740 mmHg 79%
    06:00 +12°C° 0 mm 1 m/s 740 mmHg 80%
    07:00 +14°C° 0 mm 1 m/s 740 mmHg 73%
    08:00 +16°C° 0 mm 1 m/s 740 mmHg 67%
    09:00 +19°C° 0 mm 1 m/s 740 mmHg 60%
    10:00 +19°C° 0 mm 2 m/s 740 mmHg 56%
    11:00 +20°C° 0 mm 2 m/s 740 mmHg 51%
    12:00 +22°C° 0 mm 3 m/s 740 mmHg 47%
    13:00 +22°C° 0 mm 3 m/s 739 mmHg 46%
    14:00 +23°C° 0 mm 4 m/s 739 mmHg 45%
    15:00 +23°C° 0 mm 4 m/s 738 mmHg 44%
    16:00 +21°C° 0 mm 4 m/s 738 mmHg 49%
    17:00 +20°C° 0 mm 3 m/s 738 mmHg 54%
    18:00 +19°C° 0 mm 3 m/s 738 mmHg 58%
    19:00 +18°C° 0 mm 3 m/s 738 mmHg 61%
    20:00 +17°C° 0 mm 3 m/s 738 mmHg 64%
    21:00 +16°C° 0 mm 2 m/s 738 mmHg 67%
    22:00 +16°C° 0 mm 2 m/s 737 mmHg 69%
    23:00 +16°C° 0 mm 2 m/s 737 mmHg 71%

    29 Septembrie, Sâmbătă

    Timp Temperatura Precipitaţii Vânt Presiune Umiditate
    00:00 +15°C° 0 mm 2 m/s 736 mmHg 73%
    01:00 +15°C° 0 mm 2 m/s 736 mmHg 75%
    02:00 +15°C° 0 mm 2 m/s 736 mmHg 77%
    03:00 +14°C° 0 mm 2 m/s 736 mmHg 79%
    04:00 +14°C° 0 mm 2 m/s 736 mmHg 80%
    05:00 +14°C° 0 mm 1 m/s 735 mmHg 81%
    06:00 +14°C° 0 mm 1 m/s 735 mmHg 82%
    07:00 +15°C° 0 mm 2 m/s 735 mmHg 78%
    08:00 +17°C° 0 mm 2 m/s 735 mmHg 73%
    09:00 +19°C° 0 mm 2 m/s 735 mmHg 69%
    10:00 +20°C° 0 mm 2 m/s 735 mmHg 65%
    11:00 +21°C° 0 mm 3 m/s 734 mmHg 62%
    12:00 +24°C° 0 mm 3 m/s 734 mmHg 58%
    13:00 +24°C° 0 mm 3 m/s 734 mmHg 56%
    14:00 +25°C° 0 mm 3 m/s 733 mmHg 54%
    15:00 +26°C° 0 mm 3 m/s 733 mmHg 52%
    16:00 +24°C° 0 mm 3 m/s 733 mmHg 58%
    17:00 +23°C° 0 mm 2 m/s 733 mmHg 64%
    18:00 +20°C° 0 mm 2 m/s 733 mmHg 69%
    19:00 +20°C° 0 mm 2 m/s 733 mmHg 71%
    20:00 +20°C° 0 mm 1 m/s 733 mmHg 74%
    21:00 +20°C° 0 mm 1 m/s 733 mmHg 76%
    22:00 +19°C° 0 mm 1 m/s 733 mmHg 77%
    23:00 +19°C° 0 mm 1 m/s 733 mmHg 77%

    30 Septembrie, Duminică

    Timp Temperatura Precipitaţii Vânt Presiune Umiditate
    00:00 +19°C° 0 mm 1 m/s 733 mmHg 78%
    01:00 +18°C° 0 mm 1 m/s 733 mmHg 78%
    02:00 +18°C° 0 mm 1 m/s 733 mmHg 78%
    03:00 +18°C° 0 mm 1 m/s 733 mmHg 78%
    04:00 +18°C° 0 mm 1 m/s 733 mmHg 78%
    05:00 +16°C° 0 mm 1 m/s 733 mmHg 77%
    06:00 +16°C° 0 mm 1 m/s 734 mmHg 77%
    07:00 +19°C° 0 mm 1 m/s 734 mmHg 70%
    08:00 +21°C° 0 mm 1 m/s 734 mmHg 64%
    09:00 +23°C° 0 mm 1 m/s 734 mmHg 58%
    10:00 +24°C° 0 mm 1 m/s 734 mmHg 55%
    11:00 +25°C° 0 mm 2 m/s 734 mmHg 52%
    12:00 +26°C° 0 mm 3 m/s 734 mmHg 49%
    13:00 +26°C° 0 mm 3 m/s 734 mmHg 49%
    14:00 +27°C° 0 mm 3 m/s 734 mmHg 48%
    15:00 +27°C° 0 mm 3 m/s 734 mmHg 47%
    16:00 +26°C° 0 mm 2 m/s 734 mmHg 52%
    17:00 +24°C° 0 mm 2 m/s 734 mmHg 57%
    18:00 +23°C° 0 mm 2 m/s 735 mmHg 63%
    19:00 +21°C° 0 mm 2 m/s 735 mmHg 66%
    20:00 +21°C° 0 mm 2 m/s 735 mmHg 70%
    21:00 +20°C° 0 mm 2 m/s 735 mmHg 73%
    22:00 +20°C° 0 mm 2 m/s 735 mmHg 74%
    23:00 +19°C° 0 mm 2 m/s 734 mmHg 74%
    Arată mai mult